Simultaneous Nadir Overpasses (SNOs) Predictions

Prediction of SNOs over PacNW region [( 10.00, 139.50) to ( 22.70, 165.60)] between NOAA-19 and NPP Satellites:

Table of predicted SNOs over PacNW region for the next 30.0 days since TLE Epoch: 10/20/2012
Index Date (NOAA-19) Time (NOAA-19) NOAA-19 Lat,Lon Date (NPP) Time (NPP) NPP Lat,Lon Distance(km) Time Diff (sec)
1 10/21/2012 15:32:05 22.60, 154.13 10/21/2012 15:34:12 23.31, 150.98 332.82 127
2 10/22/2012 02:48:38 22.65, 157.57 10/22/2012 02:46:55 22.22, 155.45 223.65 103
3 11/03/2012 02:19:40 19.31, 165.45 11/03/2012 02:20:38 18.65, 162.64 304.49 58
4 11/03/2012 04:01:50 19.60, 139.86 11/03/2012 04:02:14 19.00, 137.18 288.81 24
5 11/03/2012 14:56:34 11.11, 161.09 11/03/2012 14:53:15 11.52, 159.22 209.13 199
6 11/15/2012 03:31:34 11.88, 148.75 11/15/2012 03:34:39 11.10, 145.37 379.38 185
7 11/15/2012
